Date,TemperatureHighF,TemperatureAvgF,TemperatureLowF,DewpointHighF,DewpointAvgF,DewpointLowF,HumidityHigh,HumidityAvg,HumidityLow,PressureMaxIn,PressureMinIn,WindSpeedMaxMPH,WindSpeedAvgMPH,GustSpeedMaxMPH,PrecipitationSumIn
2013-1-1,25,18,12,21,14,8,90,82,67,30.30,30.15,8,3,10,0.00
2013-1-2,32,20,10,17,12,8,91,73,50,30.30,30.21,8,2,12,0.00
2013-1-3,36,28,21,27,22,16,91,78,60,30.41,30.24,14,4,17,0.03
2013-1-4,38,28,18,23,19,15,91,71,50,30.45,30.32,11,4,16,0.01
2013-1-5,42,35,29,32,26,20,80,71,59,30.32,30.08,10,4,16,0.00
2013-1-6,39,30,26,32,23,19,84,75,63,30.39,30.07,17,5,28,0.00
2013-1-7,45,34,24,27,23,19,80,65,48,30.40,30.15,12,5,19,0.00
2013-1-8,51,42,32,32,26,23,69,56,39,30.20,30.08,16,5,23,0.00
2013-1-9,52,45,39,38,33,30,81,64,49,30.47,30.16,11,4,18,0.00
2013-1-10,54,42,38,53,38,28,98,85,65,30.45,29.77,18,6,18,0.78
2013-1-11,61,53,46,52,48,46,98,83,62,29.86,29.73,15,7,29,0.00
2013-1-12,55,43,28,48,37,25,93,79,56,29.97,29.77,13,6,24,0.19
2013-1-13,28,20,15,26,17,12,93,86,79,30.40,29.92,12,4,13,0.00
2013-1-14,24,18,13,17,13,8,90,83,71,30.54,30.40,5,2,7,0.00
2013-1-15,26,21,14,20,16,12,90,84,74,30.46,30.19,7,2,9,0.00
2013-1-16,39,28,17,23,20,14,91,72,51,30.20,30.04,13,4,16,0.01
2013-1-17,36,32,27,28,23,19,89,70,54,30.49,30.14,13,4,19,0.00
2013-1-18,53,39,26,28,23,19,76,56,34,30.51,30.11,18,6,26,0.00
2013-1-19,60,48,39,36,31,27,63,53,38,30.13,29.90,16,7,23,0.00
2013-1-20,42,26,20,29,12,5,76,56,45,30.36,30.13,13,5,25,0.00
2013-1-21,19,14,10,12,1,-6,77,56,43,30.44,30.33,15,7,32,0.00
2013-1-22,14,11,8,10,4,-4,84,72,56,30.54,30.41,7,2,9,0.00
2013-1-23,39,24,10,23,15,8,90,70,53,30.42,30.19,14,4,18,0.00
2013-1-24,23,18,11,11,6,2,76,59,48,30.64,30.31,14,6,24,0.00
2013-1-25,40,30,23,21,16,9,64,56,45,30.31,30.13,13,5,17,0.00
2013-1-26,36,27,17,21,14,7,76,58,40,30.42,30.26,8,3,11,0.00
2013-1-27,52,36,28,50,32,17,96,86,63,30.31,29.93,14,7,30,0.02
2013-1-28,72,62,52,62,57,50,92,84,70,29.94,29.79,14,7,26,0.00
2013-1-29,66,60,50,60,57,49,97,89,80,29.79,29.38,27,8,34,1.41
2013-1-30,50,35,24,50,32,16,98,86,68,29.91,29.31,20,9,36,0.18
2013-1-31,26,20,7,20,11,-3,83,69,51,30.42,29.91,21,9,30,0.00
2013-2-1,27,14,4,15,3,-3,73,61,47,30.53,30.23,13,5,23,0.00
2013-2-2,36,29,25,23,19,10,93,65,50,30.23,30.06,13,5,24,0.00
2013-2-3,32,27,24,26,19,12,95,72,45,30.21,30.01,15,5,29,0.00
2013-2-4,48,34,26,32,24,18,85,68,52,30.01,29.83,12,4,19,0.00
2013-2-5,50,35,25,35,28,22,91,76,55,30.15,29.90,13,4,20,0.00
2013-2-6,50,40,28,33,30,26,90,69,47,30.24,30.05,13,5,18,0.00
2013-2-7,42,39,34,42,35,31,96,86,69,30.07,29.87,16,5,25,0.23
2013-2-8,34,32,28,32,28,24,96,86,79,30.39,30.07,14,5,19,0.00
2013-2-9,39,32,27,34,27,24,89,81,68,30.38,30.02,14,6,29,0.08
2013-2-10,58,46,36,51,39,28,94,79,39,30.04,29.55,26,10,36,0.33
2013-2-11,47,40,35,29,26,24,70,60,46,30.15,29.75,18,9,35,0.00
2013-2-12,40,34,27,28,25,22,87,69,52,30.18,29.96,6,2,9,0.00
2013-2-13,50,40,31,32,28,25,83,66,41,29.96,29.81,12,4,20,0.00
2013-2-14,50,42,36,34,31,25,83,66,51,30.07,29.80,14,6,21,0.00
2013-2-15,38,30,23,26,17,11,84,59,39,30.29,30.07,14,6,20,0.00
2013-2-16,32,25,16,15,12,8,78,59,39,30.30,30.19,11,4,18,0.00
2013-2-17,44,32,18,31,20,12,85,62,39,30.20,29.90,15,6,25,0.00
2013-2-18,55,43,30,47,36,22,92,77,68,29.89,29.52,21,10,33,0.26
2013-2-19,29,23,20,22,13,9,75,66,55,30.33,29.89,24,9,31,0.00
2013-2-20,22,18,12,12,9,6,79,68,59,30.46,30.33,11,3,18,0.00
2013-2-21,29,22,18,28,20,12,96,89,76,30.38,29.86,16,6,29,0.00
2013-2-22,31,28,21,30,25,17,96,89,77,30.08,29.82,10,4,16,0.00
2013-2-23,31,24,15,19,17,13,90,74,58,30.08,30.02,8,3,12,0.02
2013-2-24,42,32,21,25,21,17,82,66,46,30.15,30.05,14,3,14,0.06
2013-2-25,43,35,26,32,28,23,92,76,59,30.09,29.69,16,5,24,0.00
2013-2-26,33,32,30,33,31,29,97,96,93,29.67,29.39,20,7,25,0.75
2013-2-27,32,30,29,30,29,27,97,95,90,29.90,29.67,16,7,23,0.04
2013-2-28,32,30,28,28,27,26,95,90,84,30.12,29.90,14,6,17,0.00
2013-3-1,31,28,24,28,25,21,95,89,77,30.24,30.09,10,5,15,0.00
2013-3-2,31,26,21,21,18,15,88,73,57,30.29,30.22,14,5,19,0.00
2013-3-3,35,27,17,24,19,14,90,71,48,30.24,30.05,9,2,11,0.02
2013-3-4,48,38,31,34,29,24,88,73,56,30.05,29.77,13,6,21,0.00
2013-3-5,35,31,29,31,27,20,95,82,66,30.16,29.81,18,9,37,0.00
2013-3-6,34,29,23,23,22,20,87,75,63,30.39,30.15,18,7,28,0.00
2013-3-7,43,31,19,29,24,17,93,78,57,30.44,30.33,10,3,14,0.00
2013-3-8,50,39,27,34,30,25,92,72,49,30.43,30.20,13,6,18,0.00
2013-3-9,61,49,38,43,37,30,93,64,40,30.19,29.77,16,8,29,0.33
2013-3-10,60,51,42,52,48,38,97,90,45,29.78,29.61,25,6,27,1.10
2013-3-11,42,32,29,40,29,24,94,88,74,30.00,29.70,15,8,24,0.00
2013-3-12,45,34,25,29,24,21,86,71,50,30.23,29.98,21,7,30,0.01
2013-3-13,38,30,24,25,18,12,90,62,40,30.45,30.23,19,7,25,0.00
2013-3-14,53,38,30,32,24,16,78,58,41,30.41,30.10,15,4,26,0.00
2013-3-15,68,53,33,46,39,30,90,62,42,30.11,29.64,10,3,14,0.00
2013-3-16,65,45,36,46,37,31,90,76,50,30.05,29.62,21,6,23,0.00
2013-3-17,36,33,30,31,29,25,96,86,74,30.11,29.80,14,5,22,0.12
2013-3-18,49,37,32,36,31,18,97,81,45,30.04,29.71,23,6,28,0.29
2013-3-19,43,34,27,20,16,10,66,49,29,30.23,30.02,14,5,18,0.00
2013-3-20,33,27,21,26,14,8,81,59,40,30.30,30.14,22,8,28,0.00
2013-3-21,34,25,17,18,12,9,71,58,41,30.16,30.02,7,2,11,0.00
2013-3-22,39,32,26,24,21,18,79,64,48,30.07,30.00,7,2,12,0.00
2013-3-23,52,41,34,32,26,22,67,56,40,30.07,29.84,11,3,21,0.00
2013-3-24,39,30,28,32,29,27,97,95,71,29.90,29.58,20,8,25,0.01
2013-3-25,31,29,27,29,27,24,96,91,79,30.21,29.85,15,7,20,0.06
2013-3-26,38,32,28,27,24,22,85,73,56,30.37,30.21,11,5,16,0.03
2013-3-27,44,34,25,25,22,20,88,65,46,30.42,30.31,7,2,10,0.00
2013-3-28,51,41,31,37,30,23,78,65,47,30.37,30.25,10,4,14,0.00
2013-3-29,58,47,37,45,39,33,87,75,59,30.25,30.19,9,3,12,0.00
2013-3-30,53,46,40,44,42,39,96,84,62,30.20,29.91,14,5,23,0.08
2013-3-31,64,52,44,50,42,30,97,74,41,29.95,29.83,17,6,26,0.00
2013-4-1,45,39,32,32,22,15,74,53,32,30.25,29.96,17,6,24,0.00
2013-4-2,46,37,27,20,17,14,69,46,32,30.37,30.25,10,3,16,0.00
2013-4-3,51,40,30,26,22,17,64,50,34,30.42,30.27,11,4,24,0.00
2013-4-4,58,48,35,27,24,18,62,41,25,30.26,30.04,10,3,12,0.00
2013-4-5,65,53,43,36,33,24,68,49,30,30.18,30.01,10,4,13,0.00
2013-4-6,73,62,52,49,39,34,65,44,26,30.01,29.67,18,8,29,0.01
2013-4-7,77,66,56,57,48,37,80,54,26,29.90,29.73,20,4,24,0.00
2013-4-8,77,68,56,61,57,52,85,70,55,29.82,29.66,15,6,22,0.05
2013-4-9,76,70,65,62,60,57,77,69,63,29.83,29.75,19,7,27,0.00
2013-4-10,72,60,52,64,53,-100,98,84,67,29.84,29.56,13,-27,38,1.93
2013-4-11,54,42,38,53,38,30,98,84,73,29.73,29.62,15,6,22,0.07
2013-4-12,41,38,34,33,31,29,81,75,69,30.01,29.71,17,7,24,0.00
2013-4-13,57,47,35,39,35,31,84,64,46,30.07,29.89,13,5,19,0.00
2013-4-14,78,62,47,55,46,40,80,58,31,29.89,29.55,21,10,34,0.00
2013-4-15,64,56,47,59,53,44,97,90,69,29.91,29.70,17,4,21,0.37
2013-4-16,47,44,41,45,42,39,96,94,89,30.15,29.95,15,5,20,0.99
2013-4-17,79,54,45,69,52,44,98,92,70,30.14,29.65,21,7,32,0.05
2013-4-18,74,56,38,66,52,30,98,87,70,29.75,29.50,24,9,33,1.46
2013-4-19,48,40,35,30,28,25,77,62,43,30.07,29.72,25,10,34,0.00
2013-4-20,54,43,34,33,26,15,76,55,23,30.34,30.07,8,3,16,0.00
2013-4-21,61,50,40,42,36,32,74,61,45,30.41,30.24,13,6,20,0.00
2013-4-22,69,59,45,46,40,36,72,51,32,30.27,29.95,15,6,25,0.00
2013-4-23,63,49,37,51,44,36,96,83,52,30.04,29.88,13,5,18,0.53
2013-4-24,50,41,33,35,32,28,96,73,43,30.24,30.01,15,6,21,0.05
2013-4-25,61,50,40,36,31,27,75,51,32,30.35,30.22,12,4,16,0.00
2013-4-26,58,53,50,46,42,35,80,67,52,30.34,30.23,14,5,21,0.00
2013-4-27,51,49,46,50,48,44,97,94,81,30.27,29.93,8,3,13,0.77
2013-4-28,56,52,50,51,50,48,98,92,81,29.96,29.89,9,4,13,0.01
2013-4-29,78,63,49,61,55,47,96,76,54,29.91,29.73,22,7,27,0.00
2013-4-30,86,74,65,62,58,51,83,61,31,29.90,29.75,17,7,22,0.00
2013-5-1,82,73,65,61,56,52,72,56,37,30.04,29.90,15,4,19,0.00
2013-5-2,71,55,40,61,49,38,95,79,67,30.15,30.02,14,6,27,0.29
2013-5-3,41,39,37,41,38,36,97,96,94,30.10,29.82,12,6,15,2.03
2013-5-4,45,34,38,43,12,-100,97,74,90,30.03,29.83,4,-209,7,0.01
2013-5-5,62,45,44,57,26,-100,100,76,77,30.01,29.90,11,-166,17,0.04
2013-5-6,71,56,52,56,36,-100,95,62,49,29.99,29.92,12,-102,25,0.00
2013-5-7,79,60,62,58,31,-100,79,48,32,30.01,29.94,9,-144,14,0.00
2013-5-8,80,65,60,58,45,-100,78,59,34,30.01,29.93,8,-60,15,0.00
2013-5-9,71,54,60,65,34,-100,96,72,74,29.94,29.81,8,-164,13,0.76
2013-5-10,61,51,52,59,38,-100,96,81,85,29.99,29.82,10,-102,16,0.00
2013-5-11,63,50,49,54,28,-100,97,57,34,30.16,29.98,20,-87,27,0.00
2013-5-12,58,48,40,34,22,-100,70,43,32,30.23,30.14,17,-58,19,0.00
2013-5-13,72,56,44,45,30,-100,88,46,27,30.21,29.98,10,-60,15,0.00
2013-5-14,91,71,60,61,44,-100,73,45,27,29.98,29.75,12,-59,18,0.00
2013-5-15,89,70,69,66,41,-100,74,47,37,29.88,29.75,12,-112,17,0.00
2013-5-16,80,65,66,68,46,-100,92,64,51,29.90,29.80,12,-102,16,0.00
2013-5-17,76,61,62,67,44,-100,91,71,68,29.93,29.88,10,-112,13,0.01
2013-5-18,80,65,63,67,49,-100,97,72,62,29.98,29.84,9,-90,12,0.00
2013-5-19,88,72,68,76,54,-100,90,66,52,29.86,29.64,17,-78,24,0.00
2013-5-20,80,60,61,70,36,-100,96,63,59,29.84,29.65,14,-174,25,0.37
2013-5-21,76,71,66,66,63,62,86,77,70,29.69,29.65,7,4,17,0.00
2013-5-22,71,58,62,62,39,-100,95,67,60,29.83,29.63,12,-116,19,0.00
2013-5-23,63,52,54,57,36,-100,90,72,75,30.23,29.84,13,-111,20,0.01
2013-5-24,74,55,46,50,37,-100,95,60,34,30.41,30.23,9,-50,14,0.00
2013-5-25,67,54,50,60,40,-100,97,73,62,30.33,30.13,7,-72,12,0.00
2013-5-26,82,63,53,69,49,-100,97,72,61,30.18,29.95,18,-60,20,1.02
2013-5-27,77,68,63,71,64,62,97,90,79,29.99,29.69,11,3,24,1.02
2013-5-28,81,73,67,74,67,64,94,83,74,29.87,29.74,18,5,23,0.40
2013-5-29,86,76,63,70,65,60,90,71,52,29.91,29.76,16,5,21,0.00
2013-5-30,82,74,64,73,67,62,97,80,65,29.84,29.72,17,6,27,0.90
2013-5-31,80,68,62,73,65,61,98,92,79,29.86,29.66,11,4,31,2.55
2013-6-1,75,67,62,69,63,56,98,86,61,29.86,29.65,15,5,23,0.12
2013-6-2,64,61,55,58,56,50,93,83,72,30.02,29.85,12,4,14,0.00
2013-6-3,73,61,53,55,51,48,90,72,53,30.09,29.98,7,2,11,0.00
2013-6-4,74,63,52,59,55,49,93,76,57,30.07,29.98,9,2,10,0.00
2013-6-5,79,67,57,64,60,56,95,79,54,30.00,29.84,5,1,8,0.02
2013-6-6,74,68,61,64,59,53,97,76,48,29.86,29.81,10,3,15,0.01
2013-6-7,72,64,57,60,57,54,95,76,60,29.90,29.85,9,2,14,0.00
2013-6-8,80,69,58,61,56,53,92,65,45,29.95,29.86,6,2,12,0.00
2013-6-9,74,67,61,64,60,57,95,80,68,29.90,29.76,9,3,14,0.35
2013-6-10,78,68,61,65,62,60,97,82,62,29.88,29.74,8,2,12,0.00
2013-6-11,88,77,63,74,68,60,92,75,60,29.92,29.79,13,2,14,0.00
2013-6-12,92,83,75,76,72,69,81,70,57,29.89,29.66,13,5,22,0.00
2013-6-13,83,74,66,73,63,56,93,69,46,29.96,29.70,11,4,21,0.00
2013-6-14,82,73,62,66,60,54,88,66,51,30.07,29.90,8,1,10,0.00
2013-6-15,88,74,65,74,66,60,97,78,60,30.06,29.88,11,3,20,0.30
2013-6-16,83,73,66,75,70,65,97,90,73,29.98,29.88,8,1,10,0.43
2013-6-17,84,74,65,75,70,63,98,87,72,29.92,29.84,9,2,12,0.00
2013-6-18,85,74,63,69,63,58,96,72,41,29.95,29.88,8,3,12,0.00
2013-6-19,87,74,62,68,62,58,87,68,44,30.04,29.95,8,3,13,0.00
2013-6-20,91,80,67,73,68,63,89,68,49,30.08,29.98,8,2,12,0.00
2013-6-21,92,83,74,77,72,67,81,71,59,30.05,29.92,11,4,16,0.00
2013-6-22,84,76,70,77,70,63,89,81,74,30.04,29.95,8,3,18,0.00
2013-6-23,91,76,68,76,68,64,96,79,62,30.00,29.92,17,3,25,0.36
2013-6-24,84,84,84,72,72,72,67,67,67,29.88,29.88,6,6,13,0.00
2013-6-25,88,84,81,76,74,73,78,73,67,29.81,29.77,8,4,11,0.00
2013-6-26,88,79,71,80,74,70,95,84,73,29.82,29.68,11,3,21,1.22
2013-6-27,89,79,72,74,72,69,94,78,54,29.86,29.74,9,3,12,0.00
2013-6-28,84,78,72,71,65,57,95,68,40,29.82,29.67,17,4,20,0.00
2013-6-29,77,70,64,66,62,60,93,78,64,29.73,29.62,13,4,18,0.24
2013-6-30,76,68,62,65,62,60,96,83,63,29.91,29.73,14,4,26,0.00
2013-7-1,77,70,63,61,55,51,79,60,44,29.97,29.90,22,7,22,0.00
2013-7-2,68,65,60,61,57,52,88,76,59,30.02,29.94,11,4,18,0.04
2013-7-3,85,72,61,65,62,58,93,71,51,30.06,29.98,4,1,9,0.01
2013-7-4,88,75,66,67,62,60,80,65,41,30.06,29.97,6,2,12,0.00
2013-7-5,88,76,65,71,65,59,93,72,39,30.04,29.95,6,1,9,0.00
2013-7-6,91,77,66,72,67,60,96,75,50,30.01,29.91,6,1,10,0.00
2013-7-7,91,79,68,74,69,62,91,72,56,29.99,29.93,9,3,11,0.00
2013-7-8,91,80,75,77,72,68,82,75,62,30.04,29.95,8,3,15,0.00
2013-7-9,92,84,77,79,74,71,84,74,58,29.99,29.86,6,2,11,0.00
2013-7-10,86,77,71,75,70,64,93,80,63,29.96,29.83,10,4,21,0.34
2013-7-11,82,74,66,66,63,61,86,69,52,30.04,29.96,8,4,15,0.00
2013-7-12,88,74,62,65,58,51,89,61,33,30.10,30.01,6,2,8,0.00
2013-7-13,88,75,62,67,62,55,84,65,44,30.08,29.98,7,2,12,0.00
2013-7-14,91,77,64,72,67,62,91,73,52,30.11,30.02,7,2,10,0.00
2013-7-15,93,80,71,78,73,69,93,80,59,30.19,30.10,4,1,10,0.00
2013-7-16,94,83,73,77,74,71,97,76,49,30.25,30.18,6,1,9,0.00
2013-7-17,97,85,76,78,74,71,87,70,50,30.29,30.14,3,1,6,0.00
2013-7-18,98,86,78,78,74,71,89,68,49,30.17,29.96,7,1,7,0.00
2013-7-19,94,84,76,77,74,71,87,73,54,29.97,29.81,8,3,10,0.00
2013-7-20,88,79,74,77,72,67,85,77,64,29.87,29.77,6,2,12,0.00
2013-7-21,81,75,70,74,71,68,95,85,75,29.89,29.80,4,1,8,0.00
2013-7-22,92,86,80,78,75,73,83,71,60,29.82,29.73,6,1,9,0.00
2013-7-23,86,78,69,74,71,63,96,79,61,29.87,29.70,11,3,19,0.11
2013-7-24,77,69,62,63,58,54,90,68,51,30.01,29.88,12,5,15,0.00
2013-7-25,84,71,60,64,60,55,85,67,45,30.09,30.01,5,1,7,0.00
2013-7-26,72,69,66,69,64,58,96,84,67,30.03,29.91,11,3,13,0.23
2013-7-27,72,65,58,66,55,49,97,73,50,29.99,29.94,11,3,19,0.01
2013-7-28,77,66,54,59,54,50,95,67,46,30.03,29.97,8,2,12,0.00
2013-7-29,81,69,60,65,59,52,85,72,51,30.13,30.04,3,1,7,0.00
2013-7-30,78,70,63,72,67,61,97,90,78,30.08,29.96,8,2,12,1.41
2013-7-31,75,71,67,70,68,66,98,92,81,30.02,29.97,7,2,11,0.00
2013-8-1,90,75,64,70,64,60,97,72,41,30.06,29.94,6,1,8,0.01
2013-8-2,80,73,69,71,67,58,97,83,55,29.95,29.89,7,2,10,1.36
2013-8-3,81,73,68,72,67,60,98,82,63,30.09,29.89,8,3,12,0.01
2013-8-4,82,72,63,67,63,59,87,74,55,30.15,30.04,6,2,9,0.00
2013-8-5,76,70,65,69,65,60,95,82,71,30.07,29.84,8,2,12,0.00
2013-8-6,87,77,69,76,71,68,98,84,67,29.88,29.79,6,2,11,0.00
2013-8-7,86,77,72,77,73,70,95,86,70,29.90,29.77,9,3,13,0.37
2013-8-8,77,72,67,73,70,66,96,93,85,29.94,29.86,10,2,10,0.01
2013-8-9,78,72,65,70,67,64,96,84,70,30.05,29.92,9,3,13,0.01
2013-8-10,82,74,68,67,63,58,90,70,51,30.12,30.05,9,3,12,0.00
2013-8-11,88,75,63,70,63,56,85,66,52,30.11,30.01,5,1,8,0.00
2013-8-12,83,73,69,73,68,62,97,85,70,30.03,29.88,4,1,8,0.48
2013-8-13,76,69,62,67,62,54,96,80,65,30.11,29.93,13,4,17,0.00
2013-8-14,75,64,55,59,54,50,85,71,51,30.20,30.11,8,2,10,0.00
2013-8-15,76,64,54,59,56,53,96,75,54,30.16,30.06,8,2,10,0.00
2013-8-16,76,67,58,61,57,54,88,72,56,30.14,30.08,10,3,15,0.00
2013-8-17,81,69,60,63,59,55,85,72,53,30.17,30.09,10,4,12,0.00
2013-8-18,84,72,60,67,62,57,88,71,55,30.15,30.05,8,2,10,0.00
2013-8-19,88,76,67,71,66,62,88,72,52,30.10,29.99,5,1,7,0.00
2013-8-20,90,78,68,72,68,63,90,72,50,30.08,29.99,4,1,7,0.00
2013-8-21,91,79,70,72,68,66,88,69,48,30.08,29.98,6,2,12,0.00
2013-8-22,90,79,71,77,71,67,90,77,61,30.06,29.97,7,1,9,0.00
2013-8-23,89,78,69,76,71,67,95,80,59,30.07,30.00,9,2,15,0.00
2013-8-24,91,78,66,75,70,65,96,77,51,30.17,30.06,4,1,8,0.00
2013-8-25,93,80,69,72,68,65,87,68,45,30.22,30.12,5,1,8,0.00
2013-8-26,96,82,72,78,73,69,96,76,53,30.16,30.00,7,2,9,0.00
2013-8-27,93,81,72,75,70,67,93,71,44,30.04,29.92,10,2,13,0.00
2013-8-28,95,82,71,73,69,67,86,66,45,29.99,29.92,8,2,10,0.00
2013-8-29,98,84,74,78,72,66,89,69,46,30.00,29.90,7,2,11,0.00
2013-8-30,99,86,76,78,74,71,94,70,46,29.91,29.76,7,2,9,0.00
2013-8-31,98,85,77,80,74,72,85,71,44,29.78,29.66,7,2,12,0.03
2013-9-1,86,78,70,80,74,66,97,87,74,29.81,29.72,10,2,22,1.03
2013-9-2,81,73,64,67,62,56,90,71,55,29.94,29.82,9,2,11,0.00
2013-9-3,87,70,57,65,59,55,92,70,45,30.07,29.95,11,2,11,0.00
2013-9-4,90,73,60,67,61,57,93,68,42,30.14,30.04,2,1,7,0.00
2013-9-5,90,76,65,69,64,58,89,69,46,30.17,30.09,4,0,6,0.00
2013-9-6,90,76,64,71,66,61,95,71,48,30.15,29.99,5,1,8,0.00
2013-9-7,93,79,66,72,66,62,89,66,44,30.01,29.86,8,2,9,0.00
2013-9-8,86,77,70,77,70,64,97,81,60,29.98,29.85,9,2,14,0.26
2013-9-9,96,82,73,79,72,67,92,73,48,29.93,29.85,7,2,10,0.01
2013-9-10,95,84,74,75,68,62,82,61,42,30.03,29.92,9,2,11,0.00
2013-9-11,93,82,72,74,67,63,75,61,45,30.08,29.97,5,2,8,0.00
2013-9-12,82,73,66,71,64,49,93,74,49,30.07,29.95,10,3,12,0.20
2013-9-13,71,64,56,59,51,43,81,63,46,30.13,30.05,11,5,17,0.00
2013-9-14,78,62,48,53,47,44,92,62,38,30.16,30.02,6,1,9,0.00
2013-9-15,78,67,58,64,56,45,93,67,53,30.09,29.95,10,3,13,0.00
2013-9-16,69,61,56,62,56,53,95,83,65,30.25,30.10,12,5,18,0.00
2013-9-17,70,61,56,64,58,52,95,89,79,30.23,30.05,5,2,8,0.04
2013-9-18,86,74,63,74,68,61,96,82,65,30.06,29.90,8,2,16,0.18
2013-9-19,88,79,72,74,70,66,86,75,61,29.93,29.79,11,4,16,0.00
2013-9-20,71,66,58,67,62,52,97,88,75,29.89,29.82,9,2,15,0.21
2013-9-21,68,60,52,53,51,48,94,75,55,29.96,29.88,8,3,13,0.00
2013-9-22,76,63,51,55,51,47,90,67,44,30.02,29.91,6,1,9,0.00
2013-9-23,77,62,49,57,52,48,94,71,47,30.02,29.90,4,1,12,0.00
2013-9-24,81,65,52,65,58,50,93,78,58,29.94,29.76,6,2,12,0.00
2013-9-25,85,70,61,68,64,60,97,81,54,29.86,29.77,10,2,12,0.00
2013-9-26,85,71,59,67,62,58,96,76,49,29.98,29.84,5,1,10,0.00
2013-9-27,83,71,59,67,60,54,94,71,50,30.07,29.96,7,1,12,0.00
2013-9-28,83,72,61,68,62,56,95,74,57,29.99,29.89,13,4,24,0.05
2013-9-29,74,62,53,59,52,44,96,71,45,30.06,29.96,9,3,13,0.02
2013-9-30,78,65,51,63,54,43,87,70,58,29.97,29.86,10,2,11,0.00
2013-10-1,82,70,64,71,66,62,95,88,67,29.99,29.90,11,2,12,0.00
2013-10-2,86,74,68,74,69,67,98,85,63,30.03,29.91,9,2,13,0.00
2013-10-3,86,75,67,71,68,65,94,80,57,29.92,29.80,9,4,17,0.22
2013-10-4,87,81,75,72,69,67,84,68,52,29.90,29.84,15,6,16,0.00
2013-10-5,74,67,53,70,64,50,96,90,81,29.90,29.80,11,4,15,0.05
2013-10-6,53,49,45,50,44,39,97,83,62,29.88,29.82,15,4,20,0.02
2013-10-7,72,57,49,50,47,45,93,72,44,30.12,29.88,8,2,13,0.00
2013-10-8,76,63,51,56,50,46,85,64,41,30.18,30.09,7,1,11,0.00
2013-10-9,76,61,46,53,49,44,95,69,40,30.18,30.08,5,1,9,0.00
2013-10-10,80,66,53,62,57,51,95,74,50,30.13,29.97,7,1,9,0.00
2013-10-11,79,68,57,62,58,55,93,71,46,30.00,29.85,12,3,18,0.00
2013-10-12,72,66,59,61,54,40,87,67,43,30.19,29.90,9,3,14,0.00
2013-10-13,70,59,49,45,38,34,83,47,28,30.38,30.19,8,3,12,0.00
2013-10-14,68,56,46,53,43,33,79,61,42,30.34,30.04,10,3,13,0.00
2013-10-15,65,60,52,63,56,47,96,89,78,30.04,29.85,10,3,13,0.26
2013-10-16,53,48,43,46,42,40,90,80,70,30.03,29.96,11,3,14,0.00
2013-10-17,62,52,45,48,44,39,97,76,43,30.00,29.89,10,2,18,0.04
2013-10-18,57,48,41,43,40,36,95,74,50,30.05,29.98,9,3,12,0.11
2013-10-19,56,45,37,40,38,36,96,78,49,30.01,29.93,12,4,18,0.16
2013-10-20,70,57,44,46,42,38,80,60,37,29.94,29.81,12,4,19,0.00
2013-10-21,55,48,39,45,38,32,80,69,51,30.05,29.88,13,3,14,0.00
2013-10-22,57,43,38,46,38,33,91,80,63,30.04,29.79,16,4,24,0.07
2013-10-23,46,39,32,36,32,27,95,77,50,30.15,30.01,10,4,17,0.00
2013-10-24,43,38,32,36,29,23,93,71,49,30.42,30.13,11,3,21,0.00
2013-10-25,54,40,27,34,28,25,95,66,36,30.52,30.20,7,2,13,0.00
2013-10-26,60,48,40,42,32,26,73,56,36,30.20,30.02,11,4,18,0.00
2013-10-27,60,46,32,35,30,27,93,57,32,30.13,30.01,6,2,11,0.00
2013-10-28,68,53,37,45,39,30,83,59,33,30.23,30.05,6,1,8,0.00
2013-10-29,55,50,44,54,46,37,97,85,64,30.23,30.05,5,1,15,0.21
2013-10-30,69,62,54,66,60,54,98,95,87,30.05,29.78,13,2,16,0.12
2013-10-31,64,58,45,63,56,44,98,95,89,29.77,29.36,12,4,21,1.39
2013-11-1,57,49,44,45,43,41,97,80,59,29.84,29.59,15,5,22,0.02
2013-11-2,52,46,41,41,38,35,92,76,54,30.19,29.84,12,4,25,0.00
2013-11-3,58,46,33,39,35,31,92,67,42,30.30,30.12,14,2,19,0.00
2013-11-4,60,51,46,47,41,36,76,68,57,30.20,30.08,10,4,20,0.00
2013-11-5,58,54,50,53,50,47,96,86,77,30.24,29.96,14,4,20,0.19
2013-11-6,57,46,35,57,44,33,97,91,80,30.26,29.88,16,5,22,0.46
2013-11-7,54,41,30,39,32,29,97,76,42,30.38,30.27,11,3,15,0.01
2013-11-8,58,46,30,37,32,27,92,62,34,30.36,30.04,13,4,24,0.00
2013-11-9,65,54,46,42,38,35,75,57,36,30.24,30.02,10,4,20,0.00
2013-11-10,55,46,39,36,31,28,68,57,41,30.42,30.24,12,2,13,0.00
2013-11-11,61,46,29,49,37,26,92,73,52,30.52,30.12,14,5,23,0.04
2013-11-12,34,27,20,25,16,12,84,66,47,30.80,30.52,13,3,23,0.00
2013-11-13,46,32,20,20,16,11,90,55,26,30.72,30.29,13,3,17,0.00
2013-11-14,57,44,32,25,19,14,57,40,20,30.28,30.02,17,5,19,0.00
2013-11-15,59,48,41,42,34,25,84,61,39,30.05,29.90,13,4,16,0.00
2013-11-16,64,57,46,60,52,42,89,84,78,29.90,29.60,15,7,27,0.00
2013-11-17,74,62,46,64,51,34,92,70,36,29.95,29.34,27,8,44,0.10
2013-11-18,53,45,38,39,32,25,92,64,38,30.31,29.95,15,4,21,0.00
2013-11-19,50,38,31,31,27,24,82,65,45,30.37,30.22,9,1,10,0.00
2013-11-20,47,38,34,41,33,27,93,82,72,30.22,30.03,12,2,17,0.23
2013-11-21,51,48,46,48,45,41,97,88,73,30.21,30.07,11,2,16,0.33
2013-11-22,46,34,28,45,32,26,97,92,86,30.55,30.21,10,4,18,0.01
2013-11-23,28,23,13,26,15,8,92,73,54,30.77,30.54,12,5,22,0.00
2013-11-24,30,19,10,12,9,5,84,66,42,30.81,30.46,6,2,13,0.00
2013-11-25,34,30,24,23,17,12,69,59,50,30.46,30.19,8,3,13,0.00
2013-11-26,35,29,20,27,20,9,85,70,56,30.29,30.12,15,5,23,0.00
2013-11-27,26,20,13,10,8,6,76,61,46,30.41,30.28,11,3,15,0.00
2013-11-28,42,31,22,24,17,10,67,57,48,30.53,30.25,11,5,20,0.00
2013-11-29,46,32,20,30,22,16,83,67,45,30.61,30.39,11,2,12,0.00
2013-11-30,57,44,35,40,34,30,81,67,51,30.38,30.09,11,3,13,0.00
2013-12-1,55,44,37,38,35,32,91,73,47,30.13,29.90,7,2,10,0.00
2013-12-2,54,43,35,44,37,31,88,80,66,29.91,29.67,6,1,11,0.00
2013-12-3,58,51,46,52,48,44,97,88,79,29.68,29.59,13,4,16,0.00
2013-12-4,67,51,31,56,47,27,97,87,59,29.88,29.48,14,5,25,0.00
2013-12-5,31,24,20,26,15,10,84,71,62,30.33,29.87,15,6,21,0.00
2013-12-6,21,17,11,11,6,2,70,64,55,30.66,30.33,10,4,14,0.00
2013-12-7,20,14,7,7,4,2,81,65,49,30.77,30.51,8,3,13,0.00
2013-12-8,24,21,16,22,18,8,94,86,66,30.50,30.04,13,3,15,0.00
2013-12-9,24,19,16,22,13,9,91,78,65,30.36,30.11,13,5,18,0.00
2013-12-10,32,22,10,16,11,5,82,64,49,30.34,30.26,16,5,23,0.00
2013-12-11,27,20,6,20,9,-5,75,62,38,30.69,30.30,14,4,25,0.00
2013-12-12,39,22,4,16,7,-4,75,55,32,30.67,30.28,11,3,16,0.00
2013-12-13,35,30,27,31,23,16,96,76,53,30.28,29.97,7,2,12,0.32
2013-12-14,32,28,23,31,27,21,97,95,91,30.17,29.87,11,4,18,0.00
2013-12-15,32,24,16,26,20,14,91,86,75,30.20,30.07,11,4,19,0.00
2013-12-16,30,24,21,27,22,19,95,92,84,30.17,30.03,11,3,17,0.00
2013-12-17,39,30,22,29,25,19,95,82,64,30.29,30.15,11,4,17,0.12
2013-12-18,51,39,26,35,24,14,71,56,39,30.28,29.92,14,5,23,0.09
2013-12-19,56,51,45,49,44,35,84,75,68,29.92,29.75,13,6,21,0.00
2013-12-20,60,46,31,56,43,30,96,90,79,29.86,29.70,13,5,18,0.01
2013-12-21,31,30,29,30,29,27,97,96,94,29.85,29.59,10,2,12,0.26
2013-12-22,30,28,20,30,27,18,97,94,89,30.30,29.66,0,0,0,0.00
2013-12-23,19,15,6,17,12,0,91,86,77,30.63,30.31,0,0,0,0.00
2013-12-24,19,11,0,13,5,-3,85,78,68,30.67,30.39,7,1,13,0.00
2013-12-25,31,27,19,29,24,12,92,87,74,30.38,30.25,7,3,12,0.00
2013-12-26,46,34,23,32,26,22,94,74,49,30.38,30.23,10,3,15,0.10
2013-12-27,52,40,30,33,29,25,88,66,45,30.38,30.22,9,4,11,0.03
2013-12-28,56,45,36,34,29,26,74,56,37,30.23,29.90,11,4,15,0.00
2013-12-29,43,25,11,30,18,-1,89,76,57,30.31,29.84,16,7,22,0.00
2013-12-30,26,14,4,12,2,-3,76,60,46,30.41,30.25,6,2,11,0.00
2013-12-31,41,31,19,23,18,12,80,61,45,30.43,30.16,8,4,19,0.00
2014-1-1,38,30,20,24,22,18,92,74,55,30.16,30.06,16,4,20,0.00
2014-1-2,19,12,5,18,8,0,92,82,69,30.52,30.12,15,6,20,0.00